$Date,$Time,DM0201B,DM0203B,DM0205B,DM0207B,DM0209B
01/07/99,00:00:01,117,187,-6,432,960
01/07/99,00:05:01,111,151,-6,441,960
01/07/99,00:10:01,126,139,-5,734,960
01/07/99,00:15:01,107,152,-5,738,960
01/07/99,00:20:01,141,150,-5,532,960
01/07/99,00:25:01,145,180,-5,506,960
01/07/99,00:30:01,138,149,-5,509,960
01/07/99,00:35:01,137,152,-5,521,960
01/07/99,00:40:01,123,148,-5,442,960
01/07/99,00:45:01,124,147,-5,415,960
01/07/99,00:50:01,112,145,-5,435,960
01/07/99,00:55:01,73,201,-5,332,960
01/07/99,01:00:01,118,194,-6,312,960
01/07/99,01:05:01,71,141,-6,302,960
01/07/99,01:10:01,49,104,-5,300,960
01/07/99,01:15:01,46,149,-5,353,960
01/07/99,01:20:01,110,153,-5,340,960
01/07/99,01:25:01,59,184,-5,408,960
01/07/99,01:30:01,107,181,-5,611,960
01/07/99,01:35:01,124,181,-5,501,960
01/07/99,01:40:01,120,159,-5,459,960
01/07/99,01:45:01,108,144,-5,430,960
01/07/99,01:50:01,133,171,-5,443,960
01/07/99,01:55:01,85,147,-5,441,960
01/07/99,02:00:01,152,164,-5,477,960
01/07/99,02:05:01,132,165,-5,465,960
01/07/99,02:10:01,161,167,-5,444,960
01/07/99,02:15:01,166,167,-5,403,960
01/07/99,02:20:01,131,170,-5,392,960
01/07/99,02:25:01,167,172,-5,432,960
01/07/99,02:30:01,162,179,-5,431,960
01/07/99,02:35:01,154,178,-5,457,960
01/07/99,02:40:01,134,178,-5,445,960
01/07/99,02:45:01,138,190,-5,449,960
01/07/99,02:50:01,141,188,-5,391,960
01/07/99,02:55:01,161,181,-6,354,960
01/07/99,03:00:01,113,167,-6,358,960
01/07/99,03:05:01,153,183,-6,350,960
01/07/99,03:10:01,131,178,-6,346,960
01/07/99,03:15:01,131,186,-6,342,960
01/07/99,03:20:01,139,176,-6,343,960
01/07/99,03:25:01,126,178,-6,414,960
01/07/99,03:30:01,111,183,-5,432,960
01/07/99,03:35:01,108,177,-5,338,960
01/07/99,03:40:01,96,156,-5,359,960
01/07/99,03:45:01,112,159,-5,296,960
01/07/99,03:50:01,86,167,-3,692,960
01/07/99,03:55:01,37,104,-1,350,960
01/07/99,04:00:01,58,30,-2,663,960
01/07/99,04:05:01,79,20,-2,612,960
01/07/99,04:10:01,58,20,-2,250,960
01/07/99,04:15:01,35,344,-2,307,960
01/07/99,04:20:01,20,21,-1,231,960
01/07/99,04:25:01,27,28,-2,237,960
01/07/99,04:30:01,34,16,-2,213,960
01/07/99,04:35:01,17,37,-2,187,960
01/07/99,04:40:01,27,210,-3,224,960
01/07/99,04:45:01,12,208,-3,232,960
01/07/99,04:50:01,20,69,-3,261,960
01/07/99,04:55:01,49,19,-3,223,960
01/07/99,05:00:01,56,25,-4,233,960
01/07/99,05:05:01,72,1,-6,251,960
01/07/99,05:10:01,84,352,-6,228,960
01/07/99,05:15:01,85,356,-7,177,960
01/07/99,05:20:01,42,12,-7,142,960
01/07/99,05:25:01,42,1,-7,114,960
01/07/99,05:30:01,36,2,-7,109,960
01/07/99,05:35:01,45,350,-7,105,960
01/07/99,05:40:01,51,1,-7,149,960
01/07/99,05:45:01,51,2,-8,145,960
01/07/99,05:50:01,63,350,-8,152,960
01/07/99,05:55:01,36,353,-8,149,960
01/07/99,06:00:01,50,359,-8,145,960
01/07/99,06:05:01,43,355,-8,157,960
01/07/99,06:10:01,48,354,-8,162,960
01/07/99,06:15:01,67,347,-8,142,960
01/07/99,06:20:01,63,343,-8,119,960
01/07/99,06:25:01,65,356,-8,90,960
01/07/99,06:30:01,50,353,-8,71,960
01/07/99,06:35:01,50,356,-8,79,960
01/07/99,06:40:01,63,356,-8,77,960
01/07/99,06:45:01,66,359,-8,91,960
01/07/99,06:50:01,66,3,-8,102,960
01/07/99,06:55:01,67,3,-8,119,960
01/07/99,07:00:01,55,358,-8,137,960
01/07/99,07:05:01,54,5,-8,133,960
01/07/99,07:10:01,68,2,-8,137,960
01/07/99,07:15:01,78,13,-8,141,960
01/07/99,07:20:01,94,1,-8,137,960
01/07/99,07:25:01,61,1,-9,126,960
01/07/99,07:30:01,72,1,-9,126,960
01/07/99,07:35:01,62,6,-9,114,960
01/07/99,07:40:01,62,359,-9,85,960
01/07/99,07:45:01,68,353,-9,91,960
01/07/99,07:50:01,64,7,-9,106,958
01/07/99,07:55:01,78,1,-9,99,958
01/07/99,08:00:01,77,1,-9,120,958
01/07/99,08:05:01,57,351,-9,132,958
01/07/99,08:10:01,60,356,-9,96,958
01/07/99,08:15:01,47,1,-9,85,958
01/07/99,08:20:01,47,16,-8,91,958
01/07/99,08:25:01,66,80,-9,64,958
01/07/99,08:30:01,38,13,-9,69,958
01/07/99,08:35:01,61,354,-9,57,958
01/07/99,08:40:01,51,3,-9,73,958
01/07/99,08:45:01,50,5,-9,57,958
01/07/99,08:50:01,29,26,-9,56,958
01/07/99,08:55:01,58,358,-9,55,958
01/07/99,09:00:01,58,3,-9,52,958
01/07/99,09:05:01,35,16,-9,49,958
01/07/99,09:10:01,60,356,-9,55,958
01/07/99,09:15:01,35,4,-9,48,958
01/07/99,09:20:01,47,356,-9,44,958
01/07/99,09:25:01,86,5,-9,44,958
01/07/99,09:30:01,61,11,-9,42,958
01/07/99,09:35:01,39,14,-9,38,958
01/07/99,09:40:01,33,42,-9,46,958
01/07/99,09:45:01,46,34,-9,45,958
01/07/99,09:50:01,40,318,-9,43,958
01/07/99,09:55:01,1,321,-9,59,958
01/07/99,10:00:01,129,202,-9,65,958
01/07/99,10:05:01,130,177,-9,68,958
01/07/99,10:10:01,188,144,-8,95,958
01/07/99,10:15:01,217,134,-8,81,958
01/07/99,10:20:01,198,148,-8,68,958
01/07/99,10:25:01,189,159,-8,64,958
01/07/99,10:30:01,246,154,-8,80,958
01/07/99,10:35:01,371,169,-8,84,958
01/07/99,10:40:01,361,169,-8,84,958
01/07/99,10:45:01,368,169,-8,83,958
01/07/99,10:50:01,426,169,-8,78,958
01/07/99,10:55:01,415,179,-8,76,958
01/07/99,11:00:01,391,179,-9,74,958
01/07/99,11:05:01,438,179,-9,72,958
01/07/99,11:10:01,395,179,-9,75,958
01/07/99,11:15:01,355,169,-9,71,958
01/07/99,11:20:01,458,179,-9,69,958
01/07/99,11:25:01,344,170,-8,69,958
01/07/99,11:30:01,369,170,-8,63,958
01/07/99,11:35:01,379,170,-8,61,958
01/07/99,11:40:01,362,170,-9,59,958
01/07/99,11:45:01,405,171,-9,59,958
01/07/99,11:50:01,427,171,-9,59,958
01/07/99,11:55:01,410,171,-9,55,958
01/07/99,12:00:01,414,182,-9,55,958
01/07/99,12:05:01,363,182,-9,55,958
01/07/99,12:10:01,424,172,-9,53,958
01/07/99,12:15:01,357,183,-9,51,958
01/07/99,12:20:01,367,182,-9,51,958
01/07/99,12:25:01,380,181,-9,48,958
01/07/99,12:30:01,403,171,-9,45,958
01/07/99,12:35:01,392,171,-9,51,958
01/07/99,12:40:01,362,171,-9,54,958
01/07/99,12:45:01,432,171,-9,56,958
01/07/99,12:50:01,407,171,-9,57,958
01/07/99,12:55:01,447,171,-9,57,958
01/07/99,13:00:01,519,161,-9,57,958
01/07/99,13:05:01,491,173,-9,59,958
01/07/99,13:10:01,436,177,-9,59,958
01/07/99,13:15:01,452,165,-9,59,958
01/07/99,13:20:01,414,175,-9,57,958
01/07/99,13:25:01,448,175,-9,55,958
01/07/99,13:30:01,431,175,-9,55,958
01/07/99,13:35:01,475,164,-9,53,958
01/07/99,13:40:01,497,164,-9,53,958
01/07/99,13:45:01,397,164,-9,55,958
01/07/99,13:50:01,423,163,-9,57,958
01/07/99,13:55:01,461,164,-9,59,958
01/07/99,14:00:01,396,164,-9,63,958
01/07/99,14:05:01,478,165,-9,63,958
01/07/99,14:10:01,439,165,-9,69,958
01/07/99,14:15:01,453,165,-9,67,958
01/07/99,14:20:01,471,165,-9,67,958
01/07/99,14:25:01,459,175,-9,63,958
01/07/99,14:30:01,396,172,-9,65,958
01/07/99,14:35:01,496,171,-9,69,958
01/07/99,14:40:01,441,171,-9,67,958
01/07/99,14:45:01,427,168,-9,67,958
01/07/99,14:50:01,387,158,-9,69,958
01/07/99,14:55:01,441,165,-9,69,958
01/07/99,15:00:01,504,159,-9,67,958
01/07/99,15:05:01,458,170,-9,65,958
01/07/99,15:10:01,442,170,-9,73,958
01/07/99,15:15:01,376,170,-9,71,958
01/07/99,15:20:01,452,170,-9,71,958
01/07/99,15:25:01,517,170,-9,75,958
01/07/99,15:30:01,434,167,-9,77,958
01/07/99,15:35:01,454,167,-9,77,958
01/07/99,15:40:01,404,167,-9,75,958
01/07/99,15:45:01,453,177,-9,73,958
01/07/99,15:50:01,469,166,-9,75,958
01/07/99,15:55:01,429,166,-9,81,958
01/07/99,16:00:01,494,165,-9,83,958
01/07/99,16:05:01,457,165,-9,88,958
01/07/99,16:10:01,428,174,-9,92,958
01/07/99,16:15:01,449,174,-9,96,958
01/07/99,16:20:01,387,174,-9,91,958
01/07/99,16:25:01,450,174,-9,83,958
01/07/99,16:30:01,454,174,-9,87,958
01/07/99,16:35:01,412,175,-9,93,958
01/07/99,16:40:01,447,175,-9,102,958
01/07/99,16:45:01,441,175,-9,112,958
01/07/99,16:50:01,420,165,-9,106,958
01/07/99,16:55:01,442,175,-9,110,958
01/07/99,17:00:01,396,168,-9,123,958
01/07/99,17:05:01,424,168,-9,131,958
01/07/99,17:10:01,362,167,-9,133,958
01/07/99,17:15:01,417,177,-9,129,958
01/07/99,17:20:01,421,180,-9,131,958
01/07/99,17:25:01,452,170,-9,145,958
01/07/99,17:30:01,483,170,-9,147,958
01/07/99,17:35:01,490,170,-9,147,958
01/07/99,17:40:01,502,163,-9,166,958
01/07/99,17:45:01,434,162,-9,188,958
01/07/99,17:50:01,512,169,-8,166,958
01/07/99,17:55:01,454,169,-8,170,958
01/07/99,18:00:01,529,169,-8,182,958
01/07/99,18:05:01,481,169,-9,181,958
01/07/99,18:10:01,509,169,-8,171,958
01/07/99,18:15:01,415,171,-8,176,958
01/07/99,18:20:01,456,160,-8,176,958
01/07/99,18:25:01,502,163,-8,176,958
01/07/99,18:30:01,466,163,-8,178,958
01/07/99,18:35:01,477,162,-8,180,958
01/07/99,18:40:01,411,172,-8,184,958
01/07/99,18:45:01,482,169,-8,183,958
01/07/99,18:50:01,453,159,-8,189,958
01/07/99,18:55:01,462,170,-8,195,958
01/07/99,19:00:01,456,170,-8,198,958
01/07/99,19:05:01,478,170,-8,213,958
01/07/99,19:10:01,417,170,-8,205,958
01/07/99,19:15:01,446,170,-8,219,958
01/07/99,19:20:01,447,169,-8,211,958
01/07/99,19:25:01,376,173,-8,224,958
01/07/99,19:30:01,447,178,-8,226,958
01/07/99,19:35:01,436,178,-8,221,958
01/07/99,19:40:01,435,166,-8,228,958
01/07/99,19:45:01,518,166,-8,224,958
01/07/99,19:50:01,492,166,-9,218,958
01/07/99,19:55:01,501,166,-9,219,958
01/07/99,20:00:01,479,163,-9,212,958
01/07/99,20:05:01,444,173,-9,225,958
01/07/99,20:10:01,469,173,-9,230,958
01/07/99,20:15:01,448,173,-9,219,958
01/07/99,20:20:01,443,173,-9,233,958
01/07/99,20:25:01,459,173,-9,248,958
01/07/99,20:30:01,512,173,-9,274,958
01/07/99,20:35:01,429,173,-8,288,958
01/07/99,20:40:01,504,175,-9,285,958
01/07/99,20:45:01,474,176,-9,235,958
01/07/99,20:50:01,556,166,-9,271,958
01/07/99,20:55:01,464,166,-9,253,958
01/07/99,21:00:01,462,168,-9,267,958
01/07/99,21:05:01,469,180,-9,265,958
01/07/99,21:10:01,449,168,-9,596,958
01/07/99,21:15:01,471,178,-8,579,958
01/07/99,21:20:01,487,167,-8,314,958
01/07/99,21:25:01,425,177,-8,441,958
01/07/99,21:30:01,487,177,-8,257,958
01/07/99,21:35:01,511,166,-8,460,958
01/07/99,21:40:01,408,166,-8,418,958
01/07/99,21:45:01,463,168,-8,390,958
01/07/99,21:50:01,405,168,-8,313,958
01/07/99,21:55:01,400,172,-9,262,958
01/07/99,22:00:01,441,172,-8,541,958
01/07/99,22:05:01,416,161,-8,565,958
01/07/99,22:10:01,413,172,-8,417,958
01/07/99,22:15:01,432,172,-8,642,958
01/07/99,22:20:01,468,172,-8,441,958
01/07/99,22:25:01,441,172,-8,618,958
01/07/99,22:30:01,424,172,-8,629,958
01/07/99,22:35:01,367,172,-8,621,958
01/07/99,22:40:01,447,172,-8,583,958
01/07/99,22:45:01,466,172,-8,614,958
01/07/99,22:50:01,475,172,-8,590,958
01/07/99,22:55:01,395,172,-8,546,958
01/07/99,23:00:01,421,172,-8,579,958
01/07/99,23:05:01,423,172,-8,621,958
01/07/99,23:10:01,421,172,-8,588,958
01/07/99,23:15:01,454,162,-7,414,958
01/07/99,23:20:01,493,162,-7,392,958
01/07/99,23:25:01,497,172,-7,360,958
01/07/99,23:30:01,418,169,-7,363,958
01/07/99,23:35:01,439,169,-7,361,958
01/07/99,23:40:01,358,157,-7,348,958
01/07/99,23:45:01,446,169,-7,332,958
01/07/99,23:50:01,379,169,-7,330,958
01/07/99,23:55:01,395,170,-7,332,958
01/08/99,00:00:01,443,166,-7,332,958
